Date String (YYYY-MM-DD hh:mm:ss) UTC,Instrument flags,Ambient pressure (hPa),Sample flow (lpm),Bypass flow (lpm),Sample temperature (°C),Ambient temperature (°C),ASC tube jacket temperature (°C),LED temperature (°C),Box temperature (°C),Sample RH (%),Span deviation,Mass concentration (μg/m³),Mass concentration (μg/m³),Mass concentration (μg/m³)
DateTimeUTC,F1_M11,P_M11,Q1_M11,Q2_M11,T1_M11,T2_M11,T3_M11,T4_M11,T5_M11,U1_M11,ZSPAN_M11,X0_M11,X2_M11,X1_M11
2022-02-01 12:00:00,,0822.3,5.01,0.00,20.9,21.3,00.0,30.1,22.4,07.7,0000.0,0009.25,0002.19,0000.71
2022-02-01 12:01:00,,0822.4,5.00,0.00,21.1,22.0,00.0,30.1,22.8,07.7,0000.0,0008.63,0002.15,0000.70
2022-02-01 12:02:00,,0822.4,5.00,0.00,21.2,22.6,00.0,30.2,23.1,07.6,0000.0,0008.39,0002.15,0000.71
2022-02-01 12:03:00,,0822.4,4.99,0.00,21.3,22.3,00.0,30.2,23.0,07.6,0000.0,0008.66,0002.13,0000.70
2022-02-01 12:04:00,,0822.4,5.02,0.00,21.2,21.7,00.0,30.2,22.7,07.7,0000.0,0009.20,0002.16,0000.70
2022-02-01 12:05:00,,0822.4,5.00,0.00,21.1,21.2,00.0,30.2,22.4,07.7,0000.0,0009.28,0002.15,0000.70
2022-02-01 12:06:00,,0822.4,4.99,0.00,20.9,20.7,00.0,30.1,22.2,07.8,0000.0,0009.77,0002.17,0000.72
2022-02-01 12:07:00,,0822.4,5.01,0.00,20.8,20.2,00.0,30.1,22.0,07.8,0000.0,0009.70,0002.10,0000.70
2022-02-01 12:08:00,,0822.4,5.00,0.00,20.7,20.3,00.0,30.1,22.1,07.9,0000.0,0009.95,0002.12,0000.70
2022-02-01 12:09:00,,0822.5,5.00,0.00,20.9,21.2,00.0,30.1,22.5,07.8,0000.0,0010.29,0002.20,0000.71
2022-02-01 12:10:00,,0822.5,5.00,0.00,21.1,22.0,00.0,30.1,22.8,07.7,0000.0,0010.45,0002.22,0000.71
2022-02-01 12:11:00,,0822.5,4.99,0.00,21.2,22.7,00.0,30.2,23.1,07.6,0000.0,0011.10,0002.31,0000.70
2022-02-01 12:12:00,,0822.5,5.01,0.00,21.3,22.5,00.0,30.2,23.1,07.7,0000.0,0011.37,0002.36,0000.71
2022-02-01 12:13:00,,0822.5,4.99,0.00,21.3,21.8,00.0,30.2,22.8,07.7,0000.0,0011.19,0002.36,0000.71
2022-02-01 12:14:00,,0822.5,5.00,0.00,21.1,21.3,00.0,30.2,22.5,07.6,0000.0,0011.21,0002.38,0000.72
2022-02-01 12:15:00,,0822.5,5.00,0.00,21.0,20.8,00.0,30.2,22.3,07.7,0000.0,0011.05,0002.31,0000.72
2022-02-01 12:16:00,,0822.5,5.00,0.00,20.9,20.2,00.0,30.1,22.1,07.8,0000.0,0010.41,0002.32,0000.71
2022-02-01 12:17:00,,0822.6,5.01,0.00,20.7,19.9,00.0,30.1,22.0,07.8,0000.0,0009.82,0002.30,0000.69
2022-02-01 12:18:00,,0822.5,4.99,0.00,20.8,20.6,00.0,30.1,22.2,07.8,0000.0,0009.70,0002.34,0000.70
2022-02-01 12:19:00,,0822.6,5.01,0.00,21.0,21.6,00.0,30.1,22.6,07.7,0000.0,0009.54,0002.33,0000.71
2022-02-01 12:20:00,,0822.5,5.00,0.00,21.1,22.4,00.0,30.1,23.0,07.6,0000.0,0008.71,0002.28,0000.71
2022-02-01 12:21:00,,0822.5,4.99,0.00,21.3,22.8,00.0,30.2,23.2,07.6,0000.0,0008.52,0002.23,0000.70
2022-02-01 12:22:00,,0822.6,5.00,0.00,21.3,22.3,00.0,30.2,23.0,07.6,0000.0,0007.91,0002.15,0000.70
2022-02-01 12:23:00,,0822.6,5.01,0.00,21.2,21.7,00.0,30.2,22.7,07.6,0000.0,0007.85,0002.09,0000.70
2022-02-01 12:24:00,,0822.5,4.99,0.00,21.1,21.0,00.0,30.2,22.5,07.7,0000.0,0007.94,0002.12,0000.70
2022-02-01 12:25:00,,0822.6,5.00,0.00,21.0,20.4,00.0,30.1,22.3,07.8,0000.0,0008.31,0002.16,0000.69
2022-02-01 12:26:00,,0822.5,4.99,0.00,20.9,19.9,00.0,30.1,22.1,07.8,0000.0,0008.06,0002.27,0000.69
2022-02-01 12:27:00,,0822.5,4.99,0.00,20.7,19.7,00.0,30.1,21.9,07.8,0000.0,0008.37,0002.30,0000.69
2022-02-01 12:28:00,,0822.5,5.01,0.00,20.6,19.9,00.0,30.0,21.9,07.8,0000.0,0008.35,0002.24,0000.69
2022-02-01 12:29:00,,0822.6,5.00,0.00,20.8,20.8,00.0,30.0,22.3,07.8,0000.0,0008.45,0002.29,0000.69
2022-02-01 12:30:00,,0822.5,5.00,0.00,20.9,21.8,00.0,30.1,22.7,07.8,0000.0,0008.69,0002.31,0000.69
2022-02-01 12:31:00,,0822.5,5.00,0.00,21.1,22.4,00.0,30.1,23.0,07.7,0000.0,0009.21,0002.33,0000.69
2022-02-01 12:32:00,,0822.5,5.00,0.00,21.2,22.1,00.0,30.1,22.8,07.6,0000.0,0009.53,0002.25,0000.70
2022-02-01 12:33:00,,0822.6,5.00,0.00,21.1,21.5,00.0,30.1,22.6,07.7,0000.0,0009.59,0002.31,0000.70
2022-02-01 12:34:00,,0822.5,5.00,0.00,21.0,20.9,00.0,30.1,22.4,07.7,0000.0,0009.94,0002.33,0000.71
2022-02-01 12:35:00,,0822.6,5.00,0.00,20.9,20.3,00.0,30.0,22.1,07.8,0000.0,0009.77,0002.40,0000.71
2022-02-01 12:36:00,,0822.5,5.00,0.00,20.7,20.0,00.0,30.0,22.0,07.9,0000.0,0009.17,0002.35,0000.71
2022-02-01 12:37:00,,0822.7,5.01,0.00,20.6,20.0,00.0,30.0,21.9,08.0,0000.0,0008.95,0002.20,0000.70
2022-02-01 12:38:00,,0822.7,4.98,0.00,20.7,20.9,00.0,30.0,22.3,07.9,0000.0,0009.09,0002.14,0000.69
2022-02-01 12:39:00,,0822.5,5.02,0.00,20.9,21.8,00.0,30.0,22.7,07.9,0000.0,0009.35,0002.16,0000.70
2022-02-01 12:40:00,,0822.5,4.99,0.00,21.1,22.6,00.0,30.1,23.0,07.8,0000.0,0009.78,0002.14,0000.69
2022-02-01 12:41:00,,0822.5,5.01,0.00,21.3,22.8,00.0,30.1,23.1,07.8,0000.0,0010.11,0002.13,0000.70
2022-02-01 12:42:00,,0822.5,5.00,0.00,21.3,22.2,00.0,30.1,22.9,07.8,0000.0,0010.02,0002.15,0000.70
2022-02-01 12:43:00,,0822.5,4.98,0.00,21.1,21.5,00.0,30.1,22.6,07.8,0000.0,0009.61,0002.23,0000.70
2022-02-01 12:44:00,,0822.6,5.00,0.00,21.0,20.9,00.0,30.1,22.4,07.8,0000.0,0009.83,0002.28,0000.70
2022-02-01 12:45:00,,0822.5,5.02,0.00,20.9,20.5,00.0,30.1,22.2,07.9,0000.0,0009.75,0002.20,0000.70
2022-02-01 12:46:00,,0822.5,4.99,0.00,20.8,20.2,00.0,30.0,22.1,08.0,0000.0,0010.43,0002.14,0000.69
2022-02-01 12:47:00,,0822.5,5.00,0.00,20.7,20.0,00.0,30.0,21.9,08.1,0000.0,0011.18,0002.09,0000.69
2022-02-01 12:48:00,,0822.6,5.00,0.00,20.7,20.2,00.0,30.0,22.0,08.1,0000.0,0011.42,0002.19,0000.70
2022-02-01 12:49:00,,0822.6,4.99,0.00,20.8,21.2,00.0,30.0,22.4,08.0,0000.0,0011.09,0002.28,0000.71
2022-02-01 12:50:00,,0822.6,5.01,0.00,21.0,22.2,00.0,30.0,22.8,08.0,0000.0,0011.49,0002.30,0000.72
2022-02-01 12:51:00,,0822.6,4.99,0.00,21.2,22.6,00.0,30.1,23.0,07.9,0000.0,0011.11,0002.38,0000.72
2022-02-01 12:52:00,,0822.6,5.00,0.00,21.2,22.0,00.0,30.1,22.9,07.9,0000.0,0010.79,0002.39,0000.73
2022-02-01 12:53:00,,0822.6,5.02,0.00,21.1,21.5,00.0,30.1,22.6,07.9,0000.0,0010.35,0002.34,0000.73
2022-02-01 12:54:00,,0822.6,5.00,0.00,21.0,21.0,00.0,30.1,22.4,07.9,0000.0,0010.18,0002.36,0000.72
2022-02-01 12:55:00,,0822.6,4.99,0.00,20.9,20.5,00.0,30.0,22.2,07.9,0000.0,0009.99,0002.27,0000.71
2022-02-01 12:56:00,,0822.6,4.99,0.00,20.8,20.2,00.0,30.0,22.1,08.0,0000.0,0009.95,0002.30,0000.70
2022-02-01 12:57:00,,0822.6,5.00,0.00,20.7,19.9,00.0,30.0,21.9,08.1,0000.0,0009.53,0002.35,0000.71
2022-02-01 12:58:00,,0822.6,5.00,0.00,20.7,20.7,00.0,30.0,22.2,08.1,0000.0,0008.90,0002.39,0000.70
2022-02-01 12:59:00,,0822.6,5.00,0.00,20.9,21.7,00.0,30.0,22.6,08.0,0000.0,0008.61,0002.35,0000.70
